Skip Page Navigation
NASA JPL Caltech
NASA Logo - Jet Propulsion Laboratory + View the NASA Portal
+ Near-Earth Object (NEO) Program
Search JPL
JPL Home Earth Solar System Stars & Galaxies Technology
JPL Solar System Dynamics
BODIES ORBITS EPHEMERIDES TOOLS PHYSICAL DATA DISCOVERY FAQ SITE MAP
JPL Small-Body Database Browser
Search: [ help ]  
1534 Nasi (1939 BK)
Classification: Main-belt Asteroid          SPK-ID: 2001534
Ephemeris | Orbit Diagram | Orbital Elements | Physical Parameters | Discovery Circumstances | Close-Approach Data ]

[ show orbit diagram ]
Orbital Elements at Epoch 2457600.5 (2016-Jul-31.0) TDB
Reference: JPL 18 (heliocentric ecliptic J2000)
 Element Value Uncertainty (1-sigma)   Units 
e .2518820528963849 2.9705e-08  
a 2.728962808016419 9.783e-09 au
q 2.04158605365536 8.103e-08 au
i 9.792510881326347 4.8827e-06 deg
node 62.13658973135954 2.3927e-05 deg
peri 42.92224761089561 2.6225e-05 deg
M 86.43678903609879 1.0697e-05 deg
tp 2457205.141594337991
(2015-Jul-01.64159434)
4.7891e-05 JED
period 1646.625558694481
4.51
8.8544e-06
2.424e-08
d
yr
n .2186289397119672 1.1756e-09 deg/d
Q 3.416339562377478 1.2247e-08 au
  Orbit Determination Parameters
   # obs. used (total)      1417  
   data-arc span      33354 days (91.32 yr)  
   first obs. used      1924-12-22  
   last obs. used      2016-04-17  
   planetary ephem.      DE431  
   SB-pert. ephem.      SB431-BIG16  
   condition code      0  
   fit RMS      .48175  
   data source      ORB  
   producer      Otto Matic  
   solution date      2016-Apr-25 12:34:28  

Additional Information
 Earth MOID = 1.06871 au 
 Jupiter MOID = 1.83048 au 
 T_jup = 3.288 
[ show covariance matrix ]

Ephemeris | Orbit Diagram | Orbital Elements | Physical Parameters | Discovery Circumstances | Close-Approach Data ]

Physical Parameter Table
Parameter Symbol Value Units Sigma Reference Notes
absolute magnitude H 11.8 mag n/a MPO265964  
diameter diameter 22.12 km 0.9 IRAS-A-FPA-3-RDR-IMPS-V6.0 IRAS observations used: 6
rotation period rot_per 7.94 h n/a LCDB (Rev. 2016-February); Warner et al., 2009 Published Reference List:
[Sauppe, J.; Torno, S.; Lemke-Oliver, R.; Ditteon, R. (2007) Minor Planet Bul. 34, 119-122.]
[Galad, A. (2010) Astron. Astrophys. 514, A55.]
[Hanus, J.; Durech, J.; Oszkiewicz, D.A.; Behrend, R.; et al. (2015) Astron. Astrophys. 586, A108.]
geometric albedo albedo 0.0754   0.006 IRAS-A-FPA-3-RDR-IMPS-V6.0 IRAS observations used: 6
SMASSII spectral type spec_B Cgh   n/a EAR-A-5-DDR-TAXONOMY-V4.0 based on a high-resolution spectrum by Xu et al. (1995) or Bus and Binzel (2002)

1534 Nasi (1939 BK)          Discovered 1939-Jan-20 by Vaisala, Y. at Turku
Reference: DISCOVERY.DBLast Updated: 2003-08-29

[ show close-approach data ]
Alternate Designations
 1939 BK = 1933 UQ = 1957 EA = 1960 UB = 1962 JA = A915 VB = A924 WE = A924 YE 
Ephemeris | Orbit Diagram | Orbital Elements | Physical Parameters | Discovery Circumstances | Close-Approach Data ]
ABOUT SSD CREDITS/AWARDS PRIVACY/COPYRIGHT GLOSSARY LINKS
FirstGov 2016-May-06 09:16 UT
(server date/time)  
NASA Home Page
Site Manager:   Ryan S. Park
Webmaster  Alan B. Chamberlin